| time (UTC) | temp C | wind direction | speed KPH | gust KPH | rain 1hr cm | rain 24hr cm | rain mn cm | humidity % | barometer mb |
| 20260505122704 | 7 | 205 | 11.3 | 20.9 | 0.00 | 0.00 | 0.00 | 68 | 914.1 |
| 20260505121704 | 7 | 235 | 11.3 | 19.3 | 0.00 | 0.00 | 0.00 | 62 | 914.1 |
| 20260505120703 | 7 | 219 | 9.7 | 19.3 | 0.00 | 0.00 | 0.00 | 57 | 914.0 |
| 20260505115703 | 7 | 210 | 9.7 | 14.5 | 0.00 | 0.00 | 0.00 | 52 | 914.0 |
| 20260505113702 | 7 | 238 | 8.0 | 14.5 | 0.00 | 0.00 | 0.00 | 57 | 913.8 |
| 20260505112701 | 7 | 242 | 8.0 | 16.1 | 0.00 | 0.00 | 0.00 | 58 | 914.0 |
| 20260505111701 | 7 | 210 | 9.7 | 16.1 | 0.00 | 0.00 | 0.00 | 46 | 914.0 |
| 20260505110700 | 7 | 225 | 4.8 | 11.3 | 0.00 | 0.00 | 0.00 | 33 | 913.6 |
| 20260505101658 | 7 | 232 | 8.0 | 16.1 | 0.00 | 0.00 | 0.00 | 39 | 913.5 |
| 20260505100657 | 7 | 221 | 8.0 | 11.3 | 0.00 | 0.00 | 0.00 | 37 | 913.6 |
| 20260505095656 | 8 | 224 | 6.4 | 14.5 | 0.00 | 0.00 | 0.00 | 36 | 913.5 |
| 20260505094656 | 8 | 229 | 6.4 | 11.3 | 0.00 | 0.00 | 0.00 | 37 | 913.4 |
| 20260505093655 | 8 | 243 | 4.8 | 9.7 | 0.00 | 0.00 | 0.00 | 39 | 913.3 |
| 20260505092655 | 8 | 245 | 4.8 | 9.7 | 0.00 | 0.00 | 0.00 | 42 | 913.2 |
| 20260505091654 | 9 | 253 | 6.4 | 11.3 | 0.00 | 0.00 | 0.00 | 39 | 913.2 |
| 20260505090654 | 9 | 233 | 4.8 | 9.7 | 0.00 | 0.00 | 0.00 | 39 | 913.1 |
| 20260505085653 | 9 | 228 | 6.4 | 12.9 | 0.00 | 0.00 | 0.00 | 42 | 913.1 |
| 20260505084653 | 9 | 226 | 8.0 | 14.5 | 0.00 | 0.00 | 0.00 | 39 | 913.2 |
| 20260505083653 | 10 | 191 | 9.7 | 17.7 | 0.00 | 0.00 | 0.00 | 37 | 913.2 |
| 20260505082653 | 10 | 228 | 9.7 | 14.5 | 0.00 | 0.00 | 0.00 | 38 | 913.2 |
| 20260505081652 | 10 | 217 | 9.7 | 16.1 | 0.00 | 0.00 | 0.00 | 36 | 913.1 |
| 20260505080651 | 10 | 211 | 9.7 | 14.5 | 0.00 | 0.00 | 0.00 | 35 | 913.1 |
| 20260505075651 | 10 | 231 | 8.0 | 14.5 | 0.00 | 0.00 | 0.00 | 40 | 913.1 |
| 20260505074650 | 10 | 208 | 8.0 | 16.1 | 0.00 | 0.00 | 0.00 | 38 | 913.2 |
| 20260505073650 | 10 | 252 | 6.4 | 14.5 | 0.00 | 0.00 | 0.00 | 41 | 913.1 |
| 20260505072650 | 10 | 242 | 9.7 | 16.1 | 0.00 | 0.00 | 0.00 | 46 | 913.1 |
| 20260505071650 | 10 | 214 | 8.0 | 14.5 | 0.00 | 0.00 | 0.00 | 44 | 913.0 |
| 20260505070648 | 11 | 205 | 8.0 | 14.5 | 0.00 | 0.00 | 0.00 | 47 | 913.0 |
| 20260505065648 | 11 | 200 | 6.4 | 14.5 | 0.00 | 0.00 | 0.00 | 45 | 912.9 |
| 20260505064647 | 10 | 204 | 8.0 | 17.7 | 0.00 | 0.00 | 0.00 | 48 | 912.9 |
| 20260505063647 | 11 | 198 | 9.7 | 17.7 | 0.00 | 0.00 | 0.00 | 43 | 912.9 |
| 20260505062647 | 11 | 187 | 8.0 | 16.1 | 0.00 | 0.00 | 0.00 | 49 | 912.8 |
| 20260505061647 | 12 | 201 | 9.7 | 17.7 | 0.00 | 0.00 | 0.00 | 46 | 912.7 |
| 20260505060646 | 12 | 148 | 8.0 | 24.1 | 0.00 | 0.00 | 0.00 | 47 | 912.9 |
| 20260505055645 | 12 | 207 | 11.3 | 17.7 | 0.00 | 0.00 | 0.00 | 44 | 912.5 |
| 20260505054645 | 12 | 233 | 8.0 | 14.5 | 0.00 | 0.00 | 0.00 | 49 | 912.6 |
| 20260505053644 | 12 | 197 | 9.7 | 19.3 | 0.00 | 0.00 | 0.00 | 52 | 912.7 |
| 20260505052644 | 12 | 235 | 6.4 | 14.5 | 0.00 | 0.00 | 0.00 | 54 | 912.6 |
| 20260505051643 | 12 | 270 | 8.0 | 16.1 | 0.00 | 0.00 | 0.00 | 50 | 912.5 |
| 20260505050643 | 12 | 177 | 8.0 | 12.9 | 0.00 | 0.00 | 0.00 | 51 | 912.6 |
| 20260505041639 | 13 | 200 | 4.8 | 12.9 | 0.00 | 0.00 | 0.00 | 44 | 912.2 |
| 20260505040638 | 13 | 197 | 4.8 | 14.5 | 0.00 | 0.00 | 0.00 | 44 | 912.3 |
| 20260505035638 | 13 | 221 | 4.8 | 11.3 | 0.00 | 0.00 | 0.00 | 43 | 912.3 |
| 20260505034637 | 13 | 193 | 4.8 | 14.5 | 0.00 | 0.00 | 0.00 | 43 | 912.3 |
| 20260505033637 | 13 | 208 | 3.2 | 9.7 | 0.00 | 0.00 | 0.00 | 43 | 912.1 |
| 20260505032636 | 13 | 194 | 4.8 | 11.3 | 0.00 | 0.00 | 0.00 | 45 | 912.1 |
| 20260505031636 | 13 | 139 | 3.2 | 9.7 | 0.00 | 0.00 | 0.00 | 44 | 912.2 |
| 20260505030636 | 13 | 179 | 4.8 | 9.7 | 0.00 | 0.00 | 0.00 | 40 | 912.1 |
| 20260505025635 | 14 | 219 | 4.8 | 11.3 | 0.00 | 0.00 | 0.00 | 38 | 912.0 |
| 20260505024635 | 13 | 108 | 3.2 | 12.9 | 0.00 | 0.00 | 0.00 | 44 | 911.9 |
| 20260505023634 | 13 | 229 | 3.2 | 9.7 | 0.00 | 0.00 | 0.00 | 43 | 911.9 |
| 20260505022634 | 13 | 240 | 4.8 | 12.9 | 0.00 | 0.00 | 0.00 | 42 | 911.8 |
| 20260505021633 | 14 | 104 | 4.8 | 12.9 | 0.00 | 0.00 | 0.00 | 42 | 911.8 |
| 20260505020633 | 14 | 273 | 3.2 | 9.7 | 0.00 | 0.00 | 0.00 | 44 | 911.6 |
| 20260505015632 | 13 | 84 | 3.2 | 9.7 | 0.00 | 0.00 | 0.00 | 46 | 911.6 |
| 20260505014632 | 13 | 195 | 1.6 | 9.7 | 0.00 | 0.00 | 0.00 | 46 | 911.4 |
| 20260505013631 | 12 | 218 | 1.6 | 11.3 | 0.00 | 0.00 | 0.00 | 49 | 911.4 |
| 20260505012631 | 13 | 232 | 3.2 | 12.9 | 0.00 | 0.00 | 0.00 | 46 | 911.1 |
| 20260505011632 | 13 | 194 | 4.8 | 11.3 | 0.00 | 0.00 | 0.00 | 45 | 910.9 |
| 20260505010630 | 12 | 198 | 1.6 | 9.7 | 0.00 | 0.00 | 0.00 | 50 | 911.0 |
| 20260505005629 | 12 | 232 | 3.2 | 11.3 | 0.00 | 0.00 | 0.00 | 47 | 910.8 |
| 20260505004629 | 12 | 198 | 1.6 | 8.0 | 0.00 | 0.00 | 0.00 | 44 | 910.8 |
| 20260505003628 | 12 | 97 | 3.2 | 9.7 | 0.00 | 0.00 | 0.00 | 47 | 910.6 |
| 20260505002628 | 12 | 207 | 4.8 | 19.3 | 0.00 | 0.00 | 0.00 | 48 | 910.5 |
| 20260505001628 | 12 | 211 | 3.2 | 11.3 | 0.00 | 0.00 | 0.00 | 49 | 910.2 |
| 20260505000627 | 11 | 204 | 3.2 | 14.5 | 0.00 | 0.00 | 0.00 | 45 | 910.0 |
| 20260504235626 | 11 | 186 | 1.6 | 4.8 | 0.00 | 0.00 | 0.00 | 53 | 910.0 |
| 20260504234626 | 11 | 207 | 3.2 | 9.7 | 0.00 | 0.00 | 0.00 | 52 | 909.9 |
| 20260504233626 | 11 | 141 | 1.6 | 9.7 | 0.00 | 0.00 | 0.00 | 51 | 909.8 |
| 20260504232626 | 11 | 195 | 1.6 | 6.4 | 0.00 | 0.00 | 0.00 | 51 | 909.7 |
| 20260504231625 | 11 | 191 | 1.6 | 6.4 | 0.00 | 0.00 | 0.00 | 51 | 909.7 |
| 20260504230624 | 10 | 97 | 1.6 | 8.0 | 0.00 | 0.00 | 0.00 | 53 | 909.5 |
| 20260504225624 | 10 | 221 | 1.6 | 9.7 | 0.00 | 0.00 | 0.00 | 54 | 909.3 |
| 20260504224623 | 10 | 136 | 3.2 | 12.9 | 0.00 | 0.00 | 0.00 | 49 | 909.2 |
| 20260504223623 | 10 | 228 | 1.6 | 6.4 | 0.00 | 0.00 | 0.00 | 54 | 909.0 |
| 20260504222623 | 9 | 136 | 1.6 | 4.8 | 0.00 | 0.00 | 0.00 | 54 | 908.7 |
| 20260504221622 | 8 | 103 | 1.6 | 6.4 | 0.00 | 0.00 | 0.00 | 55 | 908.5 |
| 20260504220622 | 8 | 186 | 0.0 | 4.8 | 0.00 | 0.00 | 0.00 | 58 | 908.4 |
| 20260504215621 | 8 | 180 | 0.0 | 1.6 | 0.00 | 0.00 | 0.00 | 57 | 908.2 |
| 20260504214621 | 7 | 205 | 1.6 | 4.8 | 0.00 | 0.00 | 0.00 | 55 | 908.1 |
| 20260504213620 | 7 | 122 | 3.2 | 8.0 | 0.00 | 0.00 | 0.00 | 55 | 908.0 |
| 20260504212620 | 7 | 117 | 3.2 | 6.4 | 0.00 | 0.00 | 0.00 | 56 | 907.8 |
| 20260504211619 | 7 | 148 | 3.2 | 9.7 | 0.00 | 0.00 | 0.00 | 56 | 907.6 |
| 20260504210619 | 7 | 207 | 3.2 | 8.0 | 0.00 | 0.00 | 0.00 | 58 | 907.4 |
| 20260504205619 | 7 | 190 | 4.8 | 11.3 | 0.00 | 0.00 | 0.00 | 59 | 907.1 |
| 20260504204618 | 6 | 204 | 6.4 | 12.9 | 0.00 | 0.00 | 0.00 | 60 | 906.7 |
| 20260504203617 | 6 | 201 | 9.7 | 20.9 | 0.00 | 0.00 | 0.00 | 59 | 906.5 |
| 20260504202617 | 6 | 191 | 9.7 | 24.1 | 0.00 | 0.00 | 0.00 | 61 | 906.2 |
| 20260504201616 | 6 | 193 | 12.9 | 27.4 | 0.00 | 0.00 | 0.00 | 62 | 906.0 |
| 20260504200616 | 6 | 207 | 11.3 | 19.3 | 0.00 | 0.00 | 0.00 | 66 | 905.7 |
| 20260504195616 | 6 | 194 | 11.3 | 24.1 | 0.00 | 0.00 | 0.00 | 71 | 905.6 |
| 20260504194615 | 5 | 136 | 9.7 | 24.1 | 0.00 | 0.00 | 0.00 | 76 | 905.2 |
| 20260504193615 | 5 | 210 | 8.0 | 14.5 | 0.00 | 0.00 | 0.00 | 79 | 904.9 |
| 20260504192614 | 5 | 169 | 4.8 | 12.9 | 0.00 | 0.00 | 0.00 | 79 | 904.7 |
| 20260504191614 | 5 | 141 | 6.4 | 12.9 | 0.00 | 0.00 | 0.00 | 79 | 904.6 |
| 20260504190613 | 5 | 120 | 6.4 | 11.3 | 0.00 | 0.00 | 0.00 | 79 | 904.4 |
| 20260504185613 | 5 | 141 | 6.4 | 14.5 | 0.00 | 0.00 | 0.00 | 79 | 904.1 |
| 20260504184613 | 5 | 131 | 6.4 | 12.9 | 0.00 | 0.00 | 0.00 | 80 | 904.0 |
| 20260504183612 | 5 | 155 | 6.4 | 8.0 | 0.00 | 0.00 | 0.00 | 80 | 903.8 |
| 20260504182612 | 5 | 110 | 9.7 | 22.5 | 0.00 | 0.00 | 0.00 | 78 | 903.6 |
| 20260504181611 | 6 | 124 | 11.3 | 20.9 | 0.00 | 0.00 | 0.00 | 78 | 903.6 |
| 20260504180611 | 6 | 108 | 11.3 | 22.5 | 0.00 | 0.00 | 0.00 | 81 | 903.2 |
| 20260504175610 | 6 | 114 | 9.7 | 29.0 | 0.00 | 0.00 | 0.00 | 82 | 903.1 |
| 20260504174610 | 7 | 127 | 8.0 | 14.5 | 0.00 | 0.00 | 0.00 | 81 | 903.0 |
| 20260504173610 | 7 | 149 | 8.0 | 12.9 | 0.00 | 0.00 | 0.00 | 81 | 902.9 |
| 20260504172610 | 7 | 138 | 8.0 | 12.9 | 0.00 | 0.00 | 0.00 | 82 | 902.7 |
| 20260504171608 | 7 | 162 | 8.0 | 11.3 | 0.00 | 0.00 | 0.00 | 81 | 902.5 |
| 20260504170608 | 7 | 173 | 6.4 | 11.3 | 0.00 | 0.00 | 0.00 | 80 | 902.6 |
| 20260504150602 | 8 | 101 | 4.8 | 16.1 | 0.00 | 0.00 | 0.00 | 56 | 901.4 |
| 20260504140600 | 9 | 349 | 4.8 | 8.0 | 0.00 | 0.00 | 2.01 | 37 | 900.5 |
| 20260504130556 | 9 | 271 | 19.3 | 32.2 | 0.00 | 0.00 | 2.01 | 32 | 898.8 |